H1 CPF 2 NER 2024 7 2 9 184 01 glonass146 H2 2216101 9146 54377 2024 7 2 0 0 0 2024 7 5 23 45 0 900 1 1 0 0 0 1 H9 10 0 60493 0.00000 0 -5018507.296 -12834656.072 -21458620.020 10 0 60493 900.00000 0 -4032654.589 -15204303.856 -20078146.091 10 0 60493 1800.00000 0 -3289520.062 -17457264.093 -18307637.010 10 0 60493 2700.00000 0 -2780750.639 -19528175.278 -16181615.723 10 0 60493 3600.00000 0 -2486150.166 -21356336.681 -13741479.062 10 0 60493 4500.00000 0 -2374760.030 -22888105.979 -11034686.833 10 0 60493 5400.00000 0 -2406398.562 -24079016.081 -8113835.570 10 0 60493 6300.00000 0 -2533592.817 -24895523.770 -5035635.176 10 0 60493 7200.00000 0 -2703820.158 -25316318.179 -1859808.453 10 0 60493 8100.00000 0 -2861964.269 -25333135.614 1352065.111 10 0 60493 9000.00000 0 -2952881.525 -24951047.787 4537738.972 10 0 60493 9900.00000 0 -2923969.260 -24188212.430 7635499.697 10 0 60493 10800.00000 0 -2727627.650 -23075097.594 10585354.769 10 0 60493 11700.00000 0 -2323511.557 -21653212.621 13330185.610 10 0 60493 12600.00000 0 -1680477.620 -19973399.128 15816844.110 10 0 60493 13500.00000 0 -778144.651 -18093753.266 17997172.314 10 0 60493 14400.00000 0 391998.515 -16077265.545 19828926.446 10 0 60493 15300.00000 0 1825984.831 -13989275.940 21276588.305 10 0 60493 16200.00000 0 3507287.031 -11894849.303 22312049.171 10 0 60493 17100.00000 0 5407266.731 -9856179.295 22915153.678 10 0 60493 18000.00000 0 7486137.702 -7930127.760 23074093.459 10 0 60493 18900.00000 0 9694405.253 -6166000.895 22785643.018 10 0 60493 19800.00000 0 11974723.995 -4603653.933 22055232.843 10 0 60493 20700.00000 0 14264098.779 -3272002.689 20896857.616 10 0 60493 21600.00000 0 16496339.119 -2188003.709 19332820.150 10 0 60493 22500.00000 0 18604666.467 -1356145.575 17393314.665 10 0 60493 23400.00000 0 20524366.711 -768472.818 15115855.988 10 0 60493 24300.00000 0 22195377.708 -405141.748 12544564.294 10 0 60493 25200.00000 0 23564703.706 -235485.167 9729317.969 10 0 60493 26100.00000 0 24588554.959 -219541.358 6724790.130 10 0 60493 27000.00000 0 25234121.928 -309982.832 3589387.003 10 0 60493 27900.00000 0 25480908.329 -454362.963 384108.735 10 0 60493 28800.00000 0 25321565.730 -597584.729 -2828644.687 10 0 60493 29700.00000 0 24762193.390 -684485.858 -5986298.320 10 0 60493 30600.00000 0 23822089.834 -662429.359 -9027332.891 10 0 60493 31500.00000 0 22532966.098 -483787.936 -11892495.803 10 0 60493 32400.00000 0 20937653.644 -108215.167 -14525967.504 10 0 60493 33300.00000 0 19088361.668 495394.483 -16876459.257 10 0 60493 34200.00000 0 17044557.693 1347341.443 -18898219.843 10 0 60493 35100.00000 0 14870561.339 2456020.048 -20551930.926 10 0 60493 36000.00000 0 12632953.112 3817328.382 -21805473.343 10 0 60493 36900.00000 0 10397907.594 5414614.537 -22634549.461 10 0 60493 37800.00000 0 8228563.162 7219162.041 -23023149.902 10 0 60493 38700.00000 0 6182538.320 9191194.278 -22963856.233 10 0 60493 39600.00000 0 4309698.101 11281355.814 -22457974.546 10 0 60493 40500.00000 0 2650262.920 13432608.514 -21515498.268 10 0 60493 41400.00000 0 1233337.528 15582463.081 -20154901.784 10 0 60493 42300.00000 0 75919.747 17665452.627 -18402769.718 10 0 60493 43200.00000 0 -817571.654 19615745.028 -16293269.793 10 0 60493 44100.00000 0 -1455232.465 21369785.139 -13867480.055 10 0 60493 45000.00000 0 -1857076.888 22868856.806 -11172584.000 10 0 60493 45900.00000 0 -2053936.987 24061458.227 -8260949.557 10 0 60493 46800.00000 0 -2085905.897 24905392.019 -5189110.020 10 0 60493 47700.00000 0 -2000391.925 25369483.438 -2016666.866 10 0 60493 48600.00000 0 -1849866.745 25434855.779 1194864.241 10 0 60493 49500.00000 0 -1689403.413 25095710.488 4383241.956 10 0 60493 50400.00000 0 -1574108.491 24359580.188 7486699.418 10 0 60493 51300.00000 0 -1556556.693 23247044.734 10445133.180 10 0 60493 52200.00000 0 -1684336.135 21790922.589 13201258.418 10 0 60493 53100.00000 0 -1997807.444 20034971.530 15701708.701 10 0 60493 54000.00000 0 -2528170.896 18032152.727 17898059.886 10 0 60493 54900.00000 0 -3295922.906 15842530.131 19747759.232 10 0 60493 55800.00000 0 -4309766.982 13530891.886 21214942.656 10 0 60493 56700.00000 0 -5566025.509 11164191.726 22271125.191 10 0 60493 57600.00000 0 -7048578.100 8808915.532 22895751.949 10 0 60493 58500.00000 0 -8729330.617 6528481.257 23076599.296 10 0 60493 59400.00000 0 -10569197.099 4380779.012 22810018.545 10 0 60493 60300.00000 0 -12519555.726 2415952.452 22101017.078 10 0 60493 61200.00000 0 -14524120.186 674512.886 20963174.591 10 0 60493 62100.00000 0 -16521150.417 -814135.984 19418394.995 10 0 60493 63000.00000 0 -18445912.251 -2032701.490 17496497.406 10 0 60493 63900.00000 0 -20233284.529 -2976491.734 15234652.697 10 0 60493 64800.00000 0 -21820405.511 -3653370.987 12676675.079 10 0 60493 65700.00000 0 -23149247.998 -4083182.436 9872181.132 10 0 60493 66600.00000 0 -24169014.868 -4296662.342 6875631.702 10 0 60493 67500.00000 0 -24838253.584 -4333891.362 3745274.703 10 0 60493 68400.00000 0 -25126599.576 -4242348.666 542009.304 10 0 60493 69300.00000 0 -25016073.709 -4074651.694 -2671805.943 10 0 60493 70200.00000 0 -24501877.752 -3886078.234 -5833576.984 10 0 60493 71100.00000 0 -23592653.041 -3731977.047 -8881705.176 10 0 60493 72000.00000 0 -22310190.477 -3665178.397 -11756799.811 10 0 60493 72900.00000 0 -20688603.471 -3733515.913 -14402847.239 10 0 60493 73800.00000 0 -18772998.482 -3977566.505 -16768312.553 10 0 60493 74700.00000 0 -16617699.293 -4428705.616 -18807151.254 10 0 60493 75600.00000 0 -14284100.108 -5107561.447 -20479710.529 10 0 60493 76500.00000 0 -11838238.163 -6022934.527 -21753502.275 10 0 60493 77400.00000 0 -9348188.233 -7171228.966 -22603832.831 10 0 60493 78300.00000 0 -6881388.482 -8536419.780 -23014277.610 10 0 60493 79200.00000 0 -4502009.600 -10090557.816 -22976992.008 10 0 60493 80100.00000 0 -2268476.860 -11794791.038 -22492853.404 10 0 60493 81000.00000 0 -231247.794 -13600859.102 -21571432.351 10 0 60493 81900.00000 0 1569062.967 -15452998.374 -20230794.438 10 0 60493 82800.00000 0 3103135.036 -17290177.339 -18497137.481 10 0 60493 83700.00000 0 4353911.183 -19048568.693 -16404271.814 10 0 60493 84600.00000 0 5317045.561 -20664154.620 -13992954.341 10 0 60493 85500.00000 0 6000814.857 -22075356.340 -11310089.771 10 0 60494 0.00000 0 6425498.396 -23225578.066 -8407815.129 10 0 60494 900.00000 0 6622255.597 -24065559.885 -5342483.964 10 0 60494 1800.00000 0 6631549.371 -24555440.107 -2173574.055 10 0 60494 2700.00000 0 6501184.079 -24666443.442 1037465.351 10 0 60494 3600.00000 0 6284041.222 -24382123.370 4228400.653 10 0 60494 4500.00000 0 6035609.289 -23699107.977 7337414.023 10 0 60494 5400.00000 0 5811412.156 -22627318.440 10304293.431 10 0 60494 6300.00000 0 5664444.483 -21189651.350 13071590.020 10 0 60494 7200.00000 0 5642721.946 -19421138.174 15585721.081 10 0 60494 8100.00000 0 5787049.230 -17367616.746 17797998.110 10 0 60494 9000.00000 0 6129099.408 -15083969.553 19665560.976 10 0 60494 9900.00000 0 6689885.420 -12632001.345 21152201.012 10 0 60494 10800.00000 0 7478688.081 -10078043.198 22229057.989 10 0 60494 11700.00000 0 8492486.204 -7490381.223 22875178.162 10 0 60494 12600.00000 0 9715913.804 -4936615.311 23077922.973 10 0 60494 13500.00000 0 11121747.634 -2481056.109 22833220.591 10 0 60494 14400.00000 0 12671906.452 -182266.959 22145655.058 10 0 60494 15300.00000 0 14318922.223 1909148.148 21028390.608 10 0 60494 16200.00000 0 16007823.735 3752419.512 19502931.541 10 0 60494 17100.00000 0 17678355.720 5318071.982 17598720.960 10 0 60494 18000.00000 0 19267442.088 6588909.870 15352584.676 10 0 60494 18900.00000 0 20711791.177 7560485.345 12808029.614 10 0 60494 19800.00000 0 21950534.206 8241030.565 10014409.017 10 0 60494 20700.00000 0 22927786.056 8650856.184 7025969.697 10 0 60494 21600.00000 0 23595020.010 8821241.491 3900799.265 10 0 60494 22500.00000 0 23913155.401 8792863.106 699693.712 10 0 60494 23400.00000 0 23854268.713 8613829.030 -2515032.203 10 0 60494 24300.00000 0 23402854.430 8337401.975 -5680767.794 10 0 60494 25200.00000 0 22556580.886 8019509.497 -8735837.545 10 0 60494 26100.00000 0 21326507.879 7716147.782 -11620715.092 10 0 60494 27000.00000 0 19736755.866 7480790.697 -14279195.050 10 0 60494 27900.00000 0 17823639.996 7361915.462 -16659498.553 10 0 60494 28800.00000 0 15634305.195 7400751.289 -18715289.893 10 0 60494 29700.00000 0 13224919.752 7629347.547 -20406583.723 10 0 60494 30600.00000 0 10658503.512 8069044.190 -21700524.815 10 0 60494 31500.00000 0 8002482.132 8729409.696 -22572025.196 10 0 60494 32400.00000 0 5326070.095 9607691.678 -23004246.656 10 0 60494 33300.00000 0 2697592.004 10688803.358 -22988919.856 10 0 60494 34200.00000 0 181853.881 11945846.255 -22526494.660 10 0 60494 35100.00000 0 -2162326.429 13341146.744 -21626119.665 10 0 60494 36000.00000 0 -4284327.750 14827762.536 -20305452.219 10 0 60494 36900.00000 0 -6143582.238 16351395.370 -18590303.479 10 0 60494 37800.00000 0 -7711004.578 17852629.307 -16514126.103 10 0 60494 38700.00000 0 -8969936.148 19269400.523 -14117355.124 10 0 60494 39600.00000 0 -9916566.974 20539594.864 -11446615.295 10 0 60494 40500.00000 0 -10559820.179 21603664.322 -8553810.628 10 0 60494 41400.00000 0 -10920706.086 22407152.899 -5495114.018 10 0 60494 42300.00000 0 -11031175.160 22903026.241 -2329876.748 10 0 60494 43200.00000 0 -10932519.817 23053707.794 880520.950 10 0 60494 44100.00000 0 -10673393.719 22832736.568 4073856.068 10 0 60494 45000.00000 0 -10307532.968 22225977.462 7188262.870 10 0 60494 45900.00000 0 -9891275.715 21232333.816 10163423.946 10 0 60494 46800.00000 0 -9480984.887 19863932.533 12941729.701 10 0 60494 47700.00000 0 -9130482.407 18145773.990 15469384.467 10 0 60494 48600.00000 0 -8888602.614 16114861.005 17697438.660 10 0 60494 49500.00000 0 -8796967.389 13818842.521 19582727.935 10 0 60494 50400.00000 0 -8888076.155 11314227.530 21088702.045 10 0 60494 51300.00000 0 -9183790.840 8664242.255 22186128.259 10 0 60494 52200.00000 0 -9694279.536 5936418.134 22853656.413 10 0 60494 53100.00000 0 -10417463.715 3200009.152 23078235.077 10 0 60494 54000.00000 0 -11338993.107 523344.047 22855370.848 10 0 60494 54900.00000 0 -12432750.687 -2028778.293 22189225.470 10 0 60494 55800.00000 0 -13661868.220 -4397543.433 21092548.163 10 0 60494 56700.00000 0 -14980211.637 -6532325.112 19586443.439 10 0 60494 57600.00000 0 -16334275.800 -8392547.116 17699977.571 10 0 60494 58500.00000 0 -17665410.746 -9949126.154 15469629.867 10 0 60494 59400.00000 0 -18912287.226 -11185435.556 12938597.957 10 0 60494 60300.00000 0 -20013498.670 -12097749.431 10155969.227 10 0 60494 61200.00000 0 -20910190.269 -12695148.387 7175773.512 10 0 60494 62100.00000 0 -21548604.041 -12998890.630 4055934.858 10 0 60494 63000.00000 0 -21882431.632 -13041274.896 857142.583 10 0 60494 63900.00000 0 -21874874.193 -12864043.396 -2358336.001 10 0 60494 64800.00000 0 -21500320.754 -12516392.844 -5527877.294 10 0 60494 65700.00000 0 -20745572.483 -12052678.565 -8589732.648 10 0 60494 66600.00000 0 -19610559.524 -11529910.104 -11484243.727 10 0 60494 67500.00000 0 -18108518.752 -11005145.790 -14155016.951 10 0 60494 68400.00000 0 -16265623.895 -10532898.099 -16550032.832 10 0 60494 69300.00000 0 -14120082.917 -10162661.124 -18622667.459 10 0 60494 70200.00000 0 -11720740.302 -9936666.038 -20332605.531 10 0 60494 71100.00000 0 -9125242.896 -9887960.431 -21646626.751 10 0 60494 72000.00000 0 -6397846.372 -10038893.284 -22539250.301 10 0 60494 72900.00000 0 -3606954.340 -10400069.770 -22993225.177 10 0 60494 73800.00000 0 -822493.071 -10969819.828 -22999857.516 10 0 60494 74700.00000 0 1886768.641 -11734202.522 -22559169.301 10 0 60494 75600.00000 0 4455843.056 -12667545.386 -21679886.285 10 0 60494 76500.00000 0 6825981.955 -13733495.363 -20379256.259 10 0 60494 77400.00000 0 8946868.596 -14886536.408 -18682702.020 10 0 60494 78300.00000 0 10778453.361 -16073909.325 -16623316.520 10 0 60494 79200.00000 0 12292358.363 -17237852.593 -14241210.612 10 0 60494 80100.00000 0 13472794.461 -18318069.649 -11582726.530 10 0 60494 81000.00000 0 14316954.614 -19254318.764 -8699532.748 10 0 60494 81900.00000 0 14834869.369 -19989016.653 -5647618.012 10 0 60494 82800.00000 0 15048732.726 -20469746.574 -2486204.260 10 0 60494 83700.00000 0 14991728.584 -20651565.776 723400.451 10 0 60494 84600.00000 0 14706408.705 -20499015.746 3918986.841 10 0 60494 85500.00000 0 14242691.623 -19987751.129 7038644.304 10 0 60495 0.00000 0 13655567.525 -19105719.393 10021952.640 10 0 60495 900.00000 0 13002605.710 -17853841.304 12811144.651 10 0 60495 1800.00000 0 12341370.328 -16246164.869 15352213.726 10 0 60495 2700.00000 0 11726851.700 -14309484.350 17595951.155 10 0 60495 3600.00000 0 11209021.500 -12082440.568 19498889.947 10 0 60495 4500.00000 0 10830613.648 -9614138.543 21024139.459 10 0 60495 5400.00000 0 10625223.647 -6962338.718 22142095.254 10 0 60495 6300.00000 0 10615805.860 -4191295.259 22831011.164 10 0 60495 7200.00000 0 10813631.758 -1369329.517 23077422.928 10 0 60495 8100.00000 0 11217753.257 1433762.546 22876415.290 10 0 60495 9000.00000 0 11814994.450 4149363.147 22231727.101 10 0 60495 9900.00000 0 12580473.243 6712637.142 21155691.716 10 0 60495 10800.00000 0 13478632.466 9064981.300 19669012.785 10 0 60495 11700.00000 0 14464738.730 11156217.511 17800378.476 10 0 60495 12600.00000 0 15486787.589 12946439.132 15585920.158 10 0 60495 13500.00000 0 16487736.185 14407433.667 13068524.567 10 0 60495 14400.00000 0 17407970.294 15523622.234 10297011.472 10 0 60495 15300.00000 0 18187902.233 16292476.180 7325191.829 10 0 60495 16200.00000 0 18770589.851 16724393.056 4210824.066 10 0 60495 17100.00000 0 19104265.324 16842036.944 1014488.648 10 0 60495 18000.00000 0 19144665.676 16679170.916 -2201596.822 10 0 60495 18900.00000 0 18857064.953 16279031.215 -5374798.132 10 0 60495 19800.00000 0 18217920.355 15692312.480 -8443295.766 10 0 60495 20700.00000 0 17216060.950 14974850.201 -11347301.603 10 0 60495 21600.00000 0 15853367.081 14185099.666 -14030235.935 10 0 60495 22500.00000 0 14144910.389 13381519.462 -16439840.558 10 0 60495 23400.00000 0 12118547.469 12619971.580 -18529205.129 10 0 60495 24300.00000 0 9813983.565 11951249.304 -20257686.025 10 0 60495 25200.00000 0 7281345.270 11418838.299 -21591699.415 10 0 60495 26100.00000 0 4579321.983 11057006.075 -22505373.063 10 0 60495 27000.00000 0 1772954.007 10889300.592 -22981044.508 10 0 60495 27900.00000 0 -1068840.216 10927521.116 -23009596.545 10 0 60495 28800.00000 0 -3875894.464 11171204.109 -22590624.252 10 0 60495 29700.00000 0 -6579473.261 11607644.948 -21732431.253 10 0 60495 30600.00000 0 -9114887.455 12212453.556 -20451856.140 10 0 60495 31500.00000 0 -11423938.716 12950619.465 -18773933.336 10 0 60495 32400.00000 0 -13457092.337 13778040.496 -16731395.691 10 0 60495 33300.00000 0 -15175289.301 14643449.801 -14364029.092 10 0 60495 34200.00000 0 -16551323.839 15490659.462 -11717892.133 10 0 60495 35100.00000 0 -17570730.972 16261025.727 -8844416.329 10 0 60495 36000.00000 0 -18232149.052 16896031.813 -5799404.599 10 0 60495 36900.00000 0 -18547144.191 17339879.511 -2641947.625 10 0 60495 37800.00000 0 -18539505.917 17541980.562 566720.831 10 0 60495 38700.00000 0 -18244045.288 17459243.218 3764407.548 10 0 60495 39600.00000 0 -17704947.328 17058058.032 6889159.562 10 0 60495 40500.00000 0 -16973747.963 16315899.636 9880457.115 10 0 60495 41400.00000 0 -16107021.029 15222477.330 12680377.190 10 0 60495 42300.00000 0 -15163872.699 13780386.092 15234705.757 10 0 60495 43200.00000 0 -14203348.356 12005230.361 17493977.991 10 0 60495 44100.00000 0 -13281860.292 9925214.628 19414427.261 10 0 60495 45000.00000 0 -12450743.525 7580216.858 20958825.419 10 0 60495 45900.00000 0 -11754041.525 5020381.904 22097199.023 10 0 60495 46800.00000 0 -11226614.051 2304291.706 22807408.349 10 0 60495 47700.00000 0 -10892646.001 -503213.583 23075578.413 10 0 60495 48600.00000 0 -10764619.635 -3333475.066 22896373.809 10 0 60495 49500.00000 0 -10842793.523 -6116615.909 22273111.758 10 0 60495 50400.00000 0 -11115210.690 -8784197.295 21217710.505 10 0 60495 51300.00000 0 -11558236.589 -11271820.731 19750473.062 10 0 60495 52200.00000 0 -12137605.478 -13521569.713 17899709.184 10 0 60495 53100.00000 0 -12809932.503 -15484189.791 15701201.442 10 0 60495 54000.00000 0 -13524629.029 -17120916.466 13197524.304 10 0 60495 54900.00000 0 -14226141.456 -18404874.508 10437228.089 10 0 60495 55800.00000 0 -14856419.600 -19321989.784 7473902.609 10 0 60495 56700.00000 0 -15357510.451 -19871374.897 4365138.057 10 0 60495 57600.00000 0 -15674167.137 -20065171.987 1171403.126 10 0 60495 58500.00000 0 -15756361.732 -19927859.023 -2045137.456 10 0 60495 59400.00000 0 -15561594.119 -19495048.804 -5221842.240 10 0 60495 60300.00000 0 -15056897.439 -18811831.697 -8296824.375 10 0 60495 61200.00000 0 -14220453.415 -17930732.800 -11210169.588 10 0 60495 62100.00000 0 -13042747.392 -16909370.852 -13905115.694 10 0 60495 63000.00000 0 -11527212.653 -15807919.039 -16329169.358 10 0 60495 63900.00000 0 -9690335.454 -14686476.288 -18435137.194 10 0 60495 64800.00000 0 -7561215.298 -13602461.281 -20182050.340 10 0 60495 65700.00000 0 -5180598.294 -12608140.155 -21535964.073 10 0 60495 66600.00000 0 -2599423.761 -11748392.840 -22470616.864 10 0 60495 67500.00000 0 123055.152 -11058812.363 -22967936.326 10 0 60495 68400.00000 0 2921498.273 -10564216.955 -23018382.839 10 0 60495 69300.00000 0 5726959.643 -10277636.927 -22621124.928 10 0 60495 70200.00000 0 8469519.794 -10199817.930 -21784043.876 10 0 60495 71100.00000 0 11080959.698 -10319260.201 -20523568.386 10 0 60495 72000.00000 0 13497365.534 -10612790.759 -18864343.360 10 0 60495 72900.00000 0 15661556.643 -11046643.029 -16838739.965 10 0 60495 73800.00000 0 17525236.716 -11577997.131 -14486217.140 10 0 60495 74700.00000 0 19050779.943 -12156914.839 -11852547.440 10 0 60495 75600.00000 0 20212579.314 -12728586.808 -8988922.645 10 0 60495 76500.00000 0 20997902.611 -13235796.746 -5950956.722 10 0 60495 77400.00000 0 21407222.157 -13621498.331 -2797605.704 10 0 60495 78300.00000 0 21454006.416 -13831396.125 409974.516 10 0 60495 79200.00000 0 21163983.836 -13816421.793 3609610.399 10 0 60495 80100.00000 0 20573911.244 -13535001.470 6739310.187 10 0 60495 81000.00000 0 19729899.542 -12955019.021 9738457.658 10 0 60495 81900.00000 0 18685367.643 -12055392.723 12548977.583 10 0 60495 82800.00000 0 17498710.799 -10827199.056 15116450.922 10 0 60495 83700.00000 0 16230780.977 -9274296.145 17391159.011 10 0 60495 84600.00000 0 14942284.498 -7413420.037 19329037.402 10 0 60495 85500.00000 0 13691205.275 -5273748.766 20892521.826 10 0 60496 0.00000 0 12530360.812 -2895951.208 22051270.701 10 0 60496 900.00000 0 11505191.818 -330757.279 22782751.468 10 0 60496 1800.00000 0 10651878.720 2362889.767 23072678.416 10 0 60496 2700.00000 0 9995861.294 5120028.509 22915295.725 10 0 60496 3600.00000 0 9550824.716 7872129.809 22313498.347 10 0 60496 4500.00000 0 9318194.005 10549704.000 21278788.459 10 0 60496 5400.00000 0 9287158.591 13084957.983 19831067.189 10 0 60496 6300.00000 0 9435226.721 15414393.164 17998264.367 10 0 60496 7200.00000 0 9729287.346 17481236.928 15815812.042 10 0 60496 8100.00000 0 10127135.711 19237606.732 13325970.500 10 0 60496 9000.00000 0 10579399.246 20646316.469 10577018.515 10 0 60496 9900.00000 0 11031782.997 21682249.093 7622322.514 10 0 60496 10800.00000 0 11427539.875 22333237.439 4519302.084 10 0 60496 11700.00000 0 11710060.935 22600415.532 1328311.679 10 0 60496 12600.00000 0 11825475.158 22498025.057 -1888539.367 10 0 60496 13500.00000 0 11725147.386 22052684.752 -5068604.868 10 0 60496 14400.00000 0 11367966.933 21302153.526 -8149933.062 10 0 60496 15300.00000 0 10722328.115 20293639.791 -11072485.801 10 0 60496 16200.00000 0 9767716.969 19081729.106 -13779320.518 10 0 60496 17100.00000 0 8495835.218 17726018.545 -16217710.634 10 0 60496 18000.00000 0 6911212.460 16288558.795 -18340181.399 10 0 60496 18900.00000 0 5031279.455 14831213.009 -20105440.191 10 0 60496 19800.00000 0 2885898.449 13413044.739 -21479182.712 10 0 60496 20700.00000 0 516369.694 12087845.687 -22434759.279 10 0 60496 21600.00000 0 -2026044.530 10901907.624 -22953688.551 10 0 60496 22500.00000 0 -4682016.759 9892131.993 -23026009.262 10 0 60496 23400.00000 0 -7386392.777 9084556.053 -22650463.884 10 0 60496 24300.00000 0 -10070678.252 8493356.382 -21834511.560 10 0 60496 25200.00000 0 -12665670.052 8120370.176 -20594170.945 10 0 60496 26100.00000 0 -15104122.873 7955152.808 -18953696.888 10 0 60496 27000.00000 0 -17323340.645 7975567.443 -16945097.983 10 0 60496 27900.00000 0 -19267585.597 8148880.181 -14607505.015 10 0 60496 28800.00000 0 -20890205.602 8433313.049 -11986403.050 10 0 60496 29700.00000 0 -22155392.404 8779988.091 -9132742.483 10 0 60496 30600.00000 0 -23039498.859 9135179.581 -6101946.551 10 0 60496 31500.00000 0 -23531861.707 9442778.666 -2952834.745 10 0 60496 32400.00000 0 -23635097.140 9646866.076 253516.902 10 0 60496 33300.00000 0 -23364858.331 9694284.206 3454956.630 10 0 60496 34200.00000 0 -22749066.435 9537100.165 6589456.106 10 0 60496 35100.00000 0 -21826648.400 9134856.089 9596304.994 10 0 60496 36000.00000 0 -20645835.223 8456512.078 12417278.311 10 0 60496 36900.00000 0 -19262092.336 7482000.062 14997754.566 10 0 60496 37800.00000 0 -17735768.779 6203323.079 17287763.826 10 0 60496 38700.00000 0 -16129563.175 4625153.361 19242946.358 10 0 60496 39600.00000 0 -14505911.842 2764903.297 20825404.178 10 0 60496 40500.00000 0 -12924407.313 652265.022 22004429.944 10 0 60496 41400.00000 0 -11439354.160 -1671763.820 22757099.804 10 0 60496 42300.00000 0 -10097563.205 -4156329.481 23068719.208 10 0 60496 43200.00000 0 -8936475.430 -6742588.536 22933113.221 10 0 60496 44100.00000 0 -7982693.338 -9365915.925 22352755.475 10 0 60496 45000.00000 0 -7250980.855 -11958364.977 21338732.639 10 0 60496 45900.00000 0 -6743773.636 -14451279.001 19910544.120 10 0 60496 46800.00000 0 -6451220.582 -16777947.393 18095739.592 10 0 60496 47700.00000 0 -6351755.379 -18876196.706 15929399.945 10 0 60496 48600.00000 0 -6413174.683 -20690809.213 13453470.248 10 0 60496 49500.00000 0 -6594178.188 -22175668.074 10715956.328 10 0 60496 50400.00000 0 -6846306.103 -23295538.957 7769999.484 10 0 60496 51300.00000 0 -7116192.372 -24027412.773 4672846.636 10 0 60496 52200.00000 0 -7348038.102 -24361352.306 1484735.662 10 0 60496 53100.00000 0 -7486199.796 -24300806.245 -1732282.094 10 0 60496 54000.00000 0 -7477781.613 -23862376.676 -4915558.544 10 0 60496 54900.00000 0 -7275120.301 -23075049.409 -8003080.071 10 0 60496 55800.00000 0 -6838055.685 -21978919.490 -10934687.894 10 0 60496 56700.00000 0 -6135888.690 -20623465.988 -13653262.432 10 0 60496 57600.00000 0 -5148942.118 -19065449.458 -16105847.263 10 0 60496 58500.00000 0 -3869656.501 -17366521.640 -18244689.598 10 0 60496 59400.00000 0 -2303173.309 -15590649.104 -20028176.188 10 0 60496 60300.00000 0 -467379.786 -13801460.262 -21421645.961 10 0 60496 61200.00000 0 1607587.267 -12059628.089 -22398063.468 10 0 60496 62100.00000 0 3880358.412 -10420398.933 -22938540.294 10 0 60496 63000.00000 0 6299826.867 -8931371.125 -23032694.875 10 0 60496 63900.00000 0 8807059.606 -7630616.076 -22678844.445 10 0 60496 64800.00000 0 11337544.475 -6545219.654 -21884026.302 10 0 60496 65700.00000 0 13823679.514 -5690303.544 -20663848.858 10 0 60496 66600.00000 0 16197400.770 -5068565.885 -19042176.240 10 0 60496 67500.00000 0 18392839.326 -4670358.467 -17050653.344 10 0 60496 68400.00000 0 20348897.269 -4474295.181 -14728081.200 10 0 60496 69300.00000 0 22011635.891 -4448364.190 -12119655.308 10 0 60496 70200.00000 0 23336377.430 -4551495.216 -9276082.146 10 0 60496 71100.00000 0 24289433.781 -4735514.463 -6252591.251 10 0 60496 72000.00000 0 24849391.204 -4947403.610 -3107862.261 10 0 60496 72900.00000 0 25007898.707 -5131766.818 97112.215 10 0 60496 73800.00000 0 24769928.454 -5233401.243 3300205.884 10 0 60496 74700.00000 0 24153498.498 -5199862.389 6439357.503 10 0 60496 75600.00000 0 23188870.502 -4983916.204 9453766.138 10 0 60496 76500.00000 0 21917256.718 -4545774.620 12285060.320 10 0 60496 77400.00000 0 20389090.760 -3855020.533 14878419.013 10 0 60496 78300.00000 0 18661934.494 -2892141.197 17183623.552 10 0 60496 79200.00000 0 16798108.193 -1649605.314 19156021.031 10 0 60496 80100.00000 0 14862142.284 -132438.019 20757381.452 10 0 60496 81000.00000 0 12918156.091 1641731.372 21956632.905 10 0 60496 81900.00000 0 11027271.833 3643152.286 22730461.316 10 0 60496 82800.00000 0 9245170.567 5830948.143 23063763.631 10 0 60496 83700.00000 0 7619890.876 8154584.512 22949945.838 10 0 60496 84600.00000 0 6189961.178 10555751.277 22391059.868 10 0 60496 85500.00000 0 4982942.941 12970582.664 21397776.105 99